sat.trackr.live / text

‹ back to catalog

STARLINK-1422

NORAD 45696 · 2020-035AR

PAYLOAD ACTIVE UNKNOWN

§ Identity

Operator
Country
US
Launch date
2020-06-04
Launch site
AFETR
Launch vehicle
Mass (kg)
RCS (m²)

Purposes: comms

External: N2YO · Heavens-Above · Gunter

§ Orbital elements

Epoch: 2026-09-12T23:36:59.946624Z

Period
93.18 min
Inclination
53.1519°
Eccentricity
0.0005753
Mean motion
15.45358259 rev/d
Perigee alt
426.4 km
Apogee alt
434.2 km
Semi-major
6,808.5 km
B*
9.3605e-4
RAAN
251.2163°
Arg perigee
35.4373°
Mean anomaly
324.7015°
Rev number
34,776

§ Raw data

STARLINK-14221 45696U 20035AR  26255.98402716  .00045249  00000+0  93605-3 0  99962 45696  53.1519 251.2163 0005753  35.4373 324.7015 15.45358259347767

JSON: /api/v1/satellites/45696 · /tle

For live sub-satellite position, see the globe view (requires WebGL).

§ Visibility from observer

Set your observer location to see the next 7 days of passes ≥ 10°. The values pass through the URL so the page stays shareable.

No JS? Fill the form by hand. The geolocation button needs JavaScript.